Regional Weather Roundup
Issued by NWS Albany, NY

Home | Current Version | Previous Version | Text Only | Print | Product List | Glossary On
Versions: 1 2 3 4 5 6 7 8 9 10 11 12 13 14 15 16 17 18 19 20 21 22 23 24 25 26 27 28
000
ASUS41 KALY 261810
RWRALY

NEW YORK STATE HOURLY WEATHER ROUNDUP
NATIONAL WEATHER SERVICE ALBANY NY
200 PM EDT TUE JUL 26 2016

NOTE: "FAIR" INDICATES FEW OR NO CLOUDS BELOW 12,000 FEET WITH NO
SIGNIFICANT WEATHER AND/OR NO OBSTRUCTIONS TO VISIBILITY.

NYZ032-033-038>043-046>054-057>066-NYZ062>081-082-084-261900-
EAST


CITY           SKY/WX    TMP DP  RH WIND       PRES   REMARKS
ALBANY         MOSUNNY   85  62  46 W14G22    29.89F
GLENS FALLS    PTSUNNY   83  63  50 NE3       29.87S
POUGHKEEPSIE   MOSUNNY   89  63  41 NW9       29.87S HX  90
NEWBURGH       PTSUNNY   84  64  51 NW7G18    29.91F
MONTGOMERY     PTSUNNY   86  65  49 NW8       29.90S
WHITE PLAINS   MOSUNNY   87  63  44 NW12      29.88F
ISLIP          MOSUNNY   90  63  40 NW16G24   29.86F HX  91
NEW YORK CITY  PTSUNNY   89  64  43 NW10G24   29.86F HX  90
CENTRAL PARK   PTSUNNY   86  65  49 W6        29.90F
$$

NYZ005>009-017-018-044>046-055-056-261900-
CENTRAL


CITY           SKY/WX    TMP DP  RH WIND       PRES   REMARKS
FULTON         SUNNY     81  63  54 W13       29.98R
SYRACUSE       PTSUNNY   79  64  60 W12       29.96S
ROME           MOSUNNY   78  65  63 W16       29.95S
ELMIRA         MOSUNNY   84  58  40 VRB5      29.97F
BINGHAMTON     MOSUNNY   78  59  51 N9        30.00F
MONTICELLO     PTSUNNY   79  63  57 NW12G17   29.98S
$$

NYZ026>034-041>043-087-261900-
NORTH


CITY           SKY/WX    TMP DP  RH WIND       PRES   REMARKS
WATERTOWN      MOSUNNY   81  61  50 SW14G23   29.93S
FORT DRUM      NOT AVBL
MASSENA        PTSUNNY   79  62  56 W13       29.89S
SARANAC LAKE   PTSUNNY   74  58  57 NW9       29.93S
PLATTSBURGH    CLOUDY    80  62  54 NW9G17    29.86R
$$

NYZ001>004-010>016-019>021-085-261900-
WEST


CITY           SKY/WX    TMP DP  RH WIND       PRES   REMARKS
NIAGARA FALLS  MOSUNNY   82  57  42 N9        30.01S
BUFFALO        MOSUNNY   80  63  55 SW13G20   30.01F
DUNKIRK        SUNNY     77  63  61 W7        30.05S
JAMESTOWN      SUNNY     75  55  50 NW9       30.07S
WELLSVILLE     MOSUNNY   80  58  46 NW8G17    30.07S
ROCHESTER      MOSUNNY   82  62  50 NW10      29.99F
PENN YAN       MOSUNNY   80  62  54 NW9       30.01S
$$

             KEY
       WCI = WIND CHILL INDEX
       VSB = VISIBILITY
       HX  = HEAT INDEX
$$




USA.gov is the U.S. government's official web portal to all federal, state and local government web resources and services.